Wind_Speed
4 4 3 3 2 2 3 2 2 2 1 2 2 3 3 3 3 3 3 4 3 3 4 4 4 4 4 4 5 5 5 5 5 6 6 6 6 6 6 6 6 6 7
4 4 4 3 2 2 2 1 1 1 1 2 2 3 3 4 3 3 4 4 3 3 3 4 4 4 4 5 5 5 5 6 6 6 6 6 6 6 7 7 7 7 7
5 4 3 2 2 1 1 1 1 1 1 2 3 3 4 4 4 3 4 4 4 4 4 4 4 5 5 5 5 6 6 6 7 7 7 7 7 7 7 8 8 8 8
5 4 3 2 1 1 2 1 0 1 2 3 4 4 4 4 4 4 5 5 4 4 5 5 5 5 5 5 6 6 6 7 7 7 7 7 8 8 8 9 9 9 9
5 4 3 2 2 2 1 0 1 2 3 3 4 5 5 5 5 5 6 5 5 4 5 5 5 5 5 5 6 6 6 7 7 7 8 8 8 8 9 9 9 9 9
6 4 3 3 3 2 0 0 1 2 3 4 4 5 5 6 6 6 6 6 5 5 5 5 5 6 6 6 6 6 6 7 7 8 8 9 9 9 9 9 9 10 9
6 5 4 3 2 1 1 1 2 2 3 4 4 5 6 6 7 7 6 6 6 6 6 6 6 6 7 7 7 7 7 7 7 7 8 10 10 10 10 10 10 10 9
6 5 4 4 3 2 1 1 2 2 3 4 5 6 6 7 7 7 7 7 7 7 7 6 6 7 7 7 7 7 7 7 7 7 8 9 10 10 10 10 10 10 10
7 6 5 4 4 2 2 2 2 2 3 4 5 6 7 8 8 8 8 7 7 7 7 7 7 8 7 7 7 8 8 8 8 8 8 9 10 11 10 10 11 11 11
7 6 6 5 4 3 2 2 1 2 3 4 5 6 7 8 8 9 8 8 8 8 8 7 7 7 7 7 7 8 8 8 8 9 9 9 10 11 11 11 11 12 12
7 7 6 4 4 3 2 2 2 3 4 5 6 7 8 8 9 9 9 9 8 8 8 8 7 7 7 8 8 8 8 8 8 9 9 10 11 11 11 11 11 13 13
8 7 5 4 4 3 2 3 3 3 4 5 6 7 8 9 9 9 9 9 9 9 9 8 8 8 8 8 8 8 8 8 8 8 9 10 11 12 12 12 12 13 13
8 7 6 5 4 3 2 3 3 4 5 6 7 8 8 9 10 10 10 10 9 9 9 9 9 8 8 8 8 8 8 8 8 9 9 9 11 12 12 13 13 13 13
7 7 6 5 4 4 3 3 3 4 5 6 7 7 8 9 10 10 10 10 10 10 10 10 9 9 8 9 9 9 8 8 8 9 9 9 10 12 12 12 13 13 14
7 6 6 5 4 4 3 3 3 4 6 7 7 7 8 9 10 10 10 10 10 10 10 10 9 9 8 9 10 10 9 9 9 9 9 10 10 11 12 13 14 14 15
7 6 5 5 4 3 3 3 3 4 5 6 6 7 8 9 10 10 11 11 11 11 11 10 9 9 8 9 9 9 9 10 10 10 10 10 10 11 13 13 13 14 15
7 6 5 4 3 3 2 2 2 4 5 6 6 7 9 10 10 11 11 11 11 11 11 10 9 8 8 8 8 9 9 10 11 11 11 11 11 12 13 13 14 14 15
6 6 5 4 3 2 2 2 3 3 4 5 6 8 9 10 10 11 11 11 11 11 11 10 9 8 7 7 7 8 9 9 11 11 11 12 12 12 12 13 14 14 16
6 5 5 4 4 2 2 2 2 3 4 5 7 8 9 10 10 11 11 11 11 11 10 10 9 7 7 6 7 7 8 8 9 10 11 12 13 13 12 12 14 15 16
6 5 5 4 4 3 2 2 2 3 4 6 7 8 9 9 10 10 11 11 11 11 10 9 9 8 7 6 6 6 7 8 8 9 10 12 13 13 12 13 13 15 16
7 5 5 5 4 3 2 2 2 3 4 5 7 8 8 9 10 10 10 11 11 11 10 10 9 8 7 6 6 6 6 6 8 8 9 11 12 12 13 13 14 15 15
6 5 5 4 4 3 3 2 2 3 4 5 6 7 8 9 10 10 10 11 11 10 10 10 9 8 7 6 5 5 5 5 6 7 8 9 11 12 13 13 13 14 15
7 5 5 4 4 4 3 2 2 3 4 5 6 7 8 9 9 10 10 10 11 11 10 10 10 9 8 7 6 5 4 4 5 6 7 8 9 11 12 13 13 13 14
7 6 5 4 4 4 3 2 2 3 4 5 6 7 8 8 9 10 10 10 10 11 10 10 10 9 8 7 6 5 4 3 3 5 6 7 9 10 11 12 13 13 14
7 6 5 5 4 4 3 3 3 3 4 5 6 7 8 8 9 9 10 10 11 11 10 10 10 9 8 7 6 5 4 3 3 4 5 7 8 10 11 12 13 14 14
7 6 5 5 4 4 4 3 3 4 5 6 6 7 7 8 8 9 9 10 10 11 11 10 10 9 8 8 7 6 4 4 3 4 5 6 8 9 11 12 13 14 14
Wind_Direction
177 179 160 146 144 124 103 109 121 100 41 19 11 358 351 345 341 334 329 321 314 308 296 290 284 270 266 255 248 246 243 242 238 236 234 233 229 221 215 215 212 212 211
173 175 165 156 154 136 110 90 84 84 47 9 355 352 348 343 339 333 327 320 315 315 303 294 280 271 265 256 250 249 246 242 240 237 235 231 226 221 221 221 221 219 215
169 172 164 158 164 143 116 105 112 45 26 359 351 348 342 336 325 322 321 319 315 310 302 294 281 276 275 263 257 254 250 246 240 238 239 234 229 226 225 224 223 223 220
169 169 164 165 165 155 139 126 67 26 9 351 344 344 346 342 333 324 323 322 315 309 302 292 281 276 273 267 262 261 255 250 246 243 241 238 234 231 229 227 224 224 224
173 170 177 172 167 170 163 123 5 1 347 342 341 346 350 345 339 331 328 324 315 310 305 291 279 277 274 265 260 261 259 251 249 246 242 240 237 234 229 226 223 223 222
185 177 173 163 163 168 194 320 338 343 341 338 342 348 346 344 340 336 332 323 312 307 302 292 280 277 276 266 258 259 264 261 250 248 243 240 238 234 229 224 223 222 220
194 185 178 179 184 205 259 297 316 330 337 338 336 340 341 340 340 335 333 323 313 310 304 296 280 278 276 270 267 262 262 264 252 246 240 237 235 232 227 224 223 221 217
197 197 193 193 208 227 255 289 319 330 333 338 335 339 340 339 337 335 331 328 320 316 310 300 288 282 279 276 276 266 262 264 253 244 239 235 233 230 225 224 220 215 213
200 200 201 204 216 219 242 275 316 332 334 338 338 338 337 336 335 330 329 328 322 315 310 303 292 286 281 276 272 266 263 262 251 243 241 236 229 225 221 220 216 214 212
197 200 207 216 223 229 240 261 293 322 331 333 338 339 335 336 334 330 330 328 323 320 314 306 295 287 281 276 274 269 263 259 251 244 241 234 225 223 222 220 217 216 212
203 205 209 220 229 236 261 274 303 315 328 333 337 338 336 336 334 334 332 328 322 318 314 308 299 291 282 278 277 271 261 255 250 246 241 233 225 222 221 220 218 218 214
206 211 215 223 231 249 265 285 304 314 322 330 332 334 336 335 334 332 331 329 327 323 318 311 302 293 285 279 276 272 263 254 247 245 240 233 226 223 221 221 220 218 215
211 213 220 226 236 237 253 279 299 312 321 328 331 332 333 334 334 333 332 331 329 326 321 313 304 293 286 279 275 272 266 255 245 241 236 230 228 224 223 222 219 217 215
213 214 221 227 228 237 253 279 299 313 323 328 331 333 336 337 337 335 334 332 329 325 321 314 305 293 283 277 272 270 264 255 247 238 234 230 229 225 222 221 219 216 214
211 216 222 222 226 243 257 280 295 313 322 330 334 338 341 342 340 338 338 334 331 327 324 317 308 298 285 277 272 267 261 251 247 240 235 231 230 226 225 222 219 218 216
207 211 212 218 228 246 259 280 302 321 328 334 340 344 346 346 345 343 340 337 334 331 327 321 313 305 292 281 275 268 262 252 247 240 236 233 229 225 224 222 220 220 218
199 203 207 215 226 245 265 293 323 334 337 339 343 345 346 346 347 344 342 341 338 336 332 327 320 312 298 284 275 267 263 254 249 241 237 233 230 226 224 222 221 219 218
199 203 208 216 227 244 265 303 329 339 343 344 345 345 345 345 345 344 345 345 343 340 338 334 327 317 304 289 278 271 265 257 252 245 239 233 230 227 224 222 221 219 220
203 206 210 215 221 233 260 296 327 339 345 349 347 344 342 343 344 345 346 346 346 345 343 340 334 327 315 301 287 276 268 259 252 245 240 236 231 228 225 223 223 222 222
208 217 223 221 220 230 256 289 323 341 346 348 349 347 345 345 347 349 349 348 349 349 348 347 343 335 326 314 300 286 274 262 252 245 240 233 229 228 226 224 224 224 224
215 219 223 223 225 233 249 276 316 340 348 349 350 352 354 354 353 352 352 352 353 353 353 353 350 345 336 326 316 304 288 267 254 246 242 234 228 226 226 224 225 225 228
211 215 218 223 227 228 239 271 313 331 344 347 348 350 354 356 357 356 354 356 358 358 359 357 354 351 346 339 329 319 302 276 256 245 241 236 231 226 225 224 225 228 230
213 214 216 223 234 236 244 265 302 325 334 340 344 346 350 354 357 359 1 1 1 2 0 359 359 356 350 347 341 334 319 291 261 246 240 235 234 231 230 228 229 231 232
208 209 213 227 235 238 245 262 290 317 329 336 340 346 349 351 354 357 0 3 3 3 3 3 2 359 356 353 347 339 329 308 273 250 242 240 238 237 236 235 234 236 238
203 210 219 231 232 234 246 263 284 305 323 332 336 340 344 347 350 354 358 2 4 4 4 3 2 1 359 357 355 350 340 323 293 267 252 247 243 241 241 240 240 240 242
206 213 223 230 235 242 254 266 283 299 315 323 327 333 340 345 349 352 355 358 1 3 4 2 2 1 1 359 357 354 345 330 310 288 267 255 251 248 247 244 244 245 246
Height
5890 5890 5890 5890 5890 5890 5890 5890 5889 5889 5889 5889 5889 5888 5887 5887 5886 5886 5885 5885 5884 5884 5884 5884 5883 5883 5883 5883 5883 5883 5884 5884 5884 5885 5885 5885 5885 5885 5886 5887 5887 5888 5888
5890 5890 5890 5890 5890 5890 5890 5890 5889 5889 5889 5889 5889 5888 5887 5886 5886 5885 5884 5884 5883 5883 5883 5883 5882 5882 5882 5882 5882 5882 5882 5883 5883 5883 5884 5884 5884 5885 5886 5886 5886 5887 5888
5889 5889 5889 5890 5890 5890 5890 5890 5890 5889 5889 5889 5888 5887 5886 5886 5885 5884 5884 5883 5882 5882 5881 5881 5881 5881 5880 5880 5880 5881 5881 5881 5881 5882 5882 5883 5883 5884 5884 5885 5885 5886 5886
5889 5889 5889 5889 5890 5890 5890 5890 5890 5890 5889 5889 5888 5887 5886 5885 5884 5884 5883 5882 5881 5881 5880 5880 5880 5879 5879 5879 5879 5879 5880 5880 5880 5881 5881 5881 5882 5882 5883 5883 5884 5884 5885
5888 5889 5889 5889 5889 5890 5890 5890 5890 5890 5889 5888 5887 5886 5885 5884 5883 5883 5882 5881 5880 5879 5879 5878 5878 5878 5878 5878 5878 5878 5878 5878 5878 5879 5879 5880 5880 5881 5881 5882 5882 5883 5883
5888 5888 5889 5889 5889 5890 5890 5890 5890 5889 5889 5888 5887 5886 5885 5884 5883 5882 5881 5880 5879 5878 5878 5877 5877 5876 5876 5876 5876 5876 5876 5876 5877 5877 5877 5878 5878 5879 5880 5880 5881 5881 5882
5887 5888 5888 5889 5889 5889 5889 5890 5890 5889 5888 5888 5887 5886 5884 5883 5882 5881 5880 5879 5878 5877 5876 5875 5875 5875 5875 5874 5874 5874 5875 5875 5875 5875 5875 5876 5876 5877 5878 5879 5879 5880 5880
5887 5888 5888 5888 5889 5889 5889 5889 5889 5888 5888 5887 5886 5885 5884 5882 5881 5880 5878 5877 5877 5876 5875 5874 5873 5873 5873 5873 5873 5873 5873 5873 5873 5873 5873 5874 5874 5875 5876 5877 5878 5879 5880
5886 5887 5888 5888 5888 5888 5888 5888 5888 5888 5887 5886 5885 5884 5883 5882 5880 5879 5877 5876 5875 5874 5873 5872 5872 5871 5871 5871 5871 5871 5871 5871 5871 5871 5871 5871 5872 5873 5874 5876 5877 5878 5879
5886 5886 5887 5887 5887 5888 5888 5887 5887 5887 5887 5886 5885 5884 5883 5881 5879 5878 5876 5875 5874 5873 5872 5871 5870 5870 5869 5869 5869 5869 5869 5869 5869 5869 5869 5869 5870 5871 5873 5874 5875 5876 5877
5885 5886 5886 5887 5887 5887 5887 5887 5887 5887 5886 5885 5884 5883 5882 5880 5879 5877 5875 5874 5873 5871 5870 5869 5869 5868 5867 5867 5867 5867 5867 5867 5867 5867 5867 5868 5868 5870 5871 5872 5873 5875 5876
5884 5885 5886 5886 5886 5886 5886 5886 5886 5886 5885 5884 5883 5882 5881 5879 5878 5876 5874 5873 5871 5870 5869 5868 5867 5866 5865 5864 5864 5864 5864 5865 5865 5865 5865 5866 5867 5868 5869 5870 5872 5873 5874
5884 5884 5885 5886 5886 5886 5886 5886 5886 5885 5884 5883 5882 5881 5880 5878 5877 5875 5873 5872 5870 5868 5867 5866 5864 5863 5862 5862 5862 5862 5862 5862 5863 5863 5863 5864 5865 5866 5867 5869 5870 5871 5872
5883 5884 5884 5885 5885 5885 5885 5885 5885 5884 5883 5882 5881 5880 5879 5877 5876 5874 5872 5870 5868 5867 5865 5863 5862 5861 5860 5860 5860 5860 5860 5860 5860 5861 5862 5862 5863 5864 5865 5867 5868 5869 5871
5882 5883 5883 5884 5884 5885 5885 5884 5884 5884 5883 5882 5880 5879 5878 5876 5875 5873 5871 5869 5867 5865 5863 5861 5860 5858 5858 5857 5857 5857 5858 5858 5858 5859 5860 5860 5861 5862 5863 5864 5866 5867 5869
5881 5882 5883 5884 5884 5884 5884 5884 5883 5883 5882 5881 5880 5878 5877 5875 5873 5872 5870 5868 5865 5863 5861 5859 5858 5856 5855 5855 5855 5855 5855 5856 5856 5857 5857 5858 5859 5860 5861 5862 5864 5865 5867
5881 5882 5882 5883 5883 5883 5883 5883 5883 5882 5881 5880 5879 5878 5876 5874 5873 5871 5869 5866 5864 5862 5859 5857 5856 5854 5853 5853 5853 5853 5853 5853 5854 5854 5855 5856 5857 5858 5859 5860 5862 5863 5865
5880 5881 5882 5882 5883 5883 5883 5882 5882 5881 5881 5880 5878 5877 5875 5874 5872 5870 5868 5865 5863 5860 5858 5856 5854 5853 5852 5851 5851 5850 5851 5851 5851 5852 5853 5854 5855 5856 5857 5858 5860 5861 5863
5880 5881 5881 5882 5882 5882 5882 5882 5881 5881 5880 5879 5878 5876 5875 5873 5871 5869 5867 5864 5862 5859 5857 5855 5853 5851 5850 5849 5849 5848 5848 5849 5849 5850 5850 5851 5852 5853 5854 5856 5857 5859 5860
5879 5880 5881 5881 5882 5882 5882 5882 5881 5880 5880 5878 5877 5876 5874 5872 5870 5868 5866 5864 5861 5859 5856 5854 5852 5850 5849 5848 5847 5847 5846 5846 5847 5847 5848 5849 5850 5851 5852 5853 5855 5856 5858
5879 5879 5880 5880 5881 5881 5881 5881 5881 5880 5879 5878 5877 5875 5874 5872 5870 5868 5865 5863 5861 5858 5856 5853 5851 5850 5848 5847 5846 5845 5845 5844 5845 5845 5846 5847 5848 5849 5850 5851 5853 5854 5855
5878 5878 5879 5880 5880 5880 5880 5880 5880 5879 5879 5878 5876 5875 5873 5871 5869 5867 5865 5863 5860 5858 5855 5853 5851 5849 5847 5846 5845 5844 5844 5844 5843 5844 5844 5845 5846 5847 5848 5849 5851 5852 5853
5877 5878 5878 5879 5879 5880 5880 5880 5879 5879 5878 5877 5876 5874 5873 5871 5869 5867 5865 5862 5860 5858 5855 5853 5851 5849 5847 5846 5844 5844 5843 5842 5842 5843 5843 5844 5845 5846 5847 5848 5849 5850 5851
5876 5877 5877 5878 5878 5879 5879 5879 5878 5878 5877 5876 5875 5873 5872 5870 5869 5867 5864 5862 5860 5857 5855 5853 5851 5849 5847 5845 5844 5843 5842 5841 5841 5842 5842 5843 5843 5844 5845 5846 5847 5848 5849
5875 5876 5877 5877 5877 5878 5878 5878 5877 5877 5876 5875 5874 5873 5871 5870 5868 5866 5864 5862 5860 5857 5855 5853 5850 5849 5847 5845 5844 5843 5842 5841 5841 5841 5841 5842 5842 5842 5843 5844 5845 5846 5847
5874 5875 5875 5876 5876 5877 5877 5877 5876 5876 5875 5874 5873 5872 5870 5869 5867 5865 5863 5861 5859 5857 5855 5853 5850 5848 5847 5845 5844 5843 5842 5841 5840 5840 5840 5840 5840 5841 5841 5842 5843 5843 5844